Showing default

GEESAT 5-01, 65550

Orbit data source: Space-Track

GEESAT 5-01, 65550 is a payload satellite owned by GeeSpace (CN) in LEO that was launched on Mon, 08 Sep 2025 UTC via a JIELONG-3 launch vehicle from the Yellow Sea Launch Area, China (YSLA). Payload-class satellites include a variety of spacecraft equipped with specific instruments for various scientific and technological missions. These include communications satellites like Starlink; space stations such as the ISS; scientific satellites like the Hubble; Earth observation satellites from companies like Planet Labs, Umbra, and HawkEye 360; GPS; miniature CubeSats for education and research; and military/defense satellites.

Loading next visibility...
Identifier
65550, 2025-201A
Orbit
LEO
Country
Flag of CNCN / PRC
Related business
Manufacturer
GWCG
Mission
Operational Commercial Navigation
Bus & Motor
GPS100, Unknown motor
Mass
130 kg wet, 130 kg dry
Launch date (UTC)
2025-09-08 (9 months ago)
Launch vehicle
JIELONG-3
Launch site
Yellow Sea Launch Area, China (YSLA)
Object type
Payload
Rocket body
Debris
Shape & HBR
Box + 2 Pan, 1.1 m
Radar Cross Section
0.833 m², Large (>1 m²)

Expand to show TLE details & history
Last TLE update: 1 day ago

TLE from 1 day ago
0 GEESAT 5-01
1 65550U 25201A   26170.82392854  .00001224  00000-0  17174-3 0  9990
2 65550  49.9937  27.3940 0003537  56.6098 303.5178 14.84192892 42192
Epoch: 2026-06-19T19:46Z
TLE epoch observation values (Epoch: 2026-06-19T19:46:27.425Z)
Latitude
-0.00008°
Longitude
-177.2677°
Altitude
615.299 km
Speed
7.553 km/s
True Right ascension
01h 49m 34s
True Declination
0° 00' 00"
Sunlit
Object was in daylight at epoch
Visualization orbit readout
Latitude
Unknown
Longitude
Unknown
Altitude
Unknown
Speed
Unknown
Apparent Right ascension
Unknown
Apparent Declination
Unknown
Sunlit
N/A
Visualization observer readout
Local Sidereal Time
07:20:18
Azimuth
Unknown
Elevation
Unknown
Doppler factor
Unknown
Orbital elements
Apogee altitude
619.354 km
Perigee altitude
614.406 km
Semi-major axis
6,995.017 km
Eccentricity
0.00035
Inclination
49.9937°
RAAN
27.394°
Arg. of periapsis
56.6098°
True anomaly
303.484°
Mean anomaly
303.5178°
Eccentric anomaly
303.5009°
Mean motion
3.70988 °/min
Orbital period
97.04 mins
BSTAR
0.00017174
Loading maneuver chart data...
Computing Atmospheric mass density...
Loading historical data...
Loading historical data...
Loading historical data...
Loading historical data...
Loading historical data...
Loading historical data...
Loading historical data...

Documentation

Showing up to 5 results
|